Regional Weather Roundup
Issued by NWS

Home | Current Version | Previous Version | Text Only | Print | Product List | Glossary On
Versions: 1 2 3 4 5 6 7 8 9 10 11 12 13 14 15 16 17 18 19 20 21 22 23 24 25 26 27 28 29 30 31 32 33 34 35 36 37 38 39 40 41 42 43 44 45 46 47 48 49 50
000
ASUS45 KBOU 261507
RWRCO

WEATHER ROUNDUP FOR COLORADO
NATIONAL WEATHER SERVICE DENVER/BOULDER CO
900 AM MDT SUN APR 26 2015

NOTE: "FAIR" INDICATES FEW OR NO CLOUDS BELOW 12000 FEET WITH NO
SIGNIFICANT WEATHER AND/OR OBSTRUCTIONS TO VISIBILITY.

COZ001>005-013-030-031-261600-
...NORTHWEST COLORADO...

CITY           SKY/WX    TMP DP  RH WIND       PRES   REMARKS
CRAIG          PTSUNNY   45  37  73 E3        29.78S
HAYDEN         MOSUNNY   45  36  70 NE5       29.78S
MEEKER         CLOUDY    41  36  82 NE5       29.77S
MOUNT WERNER   NOT AVBL
STEAMBOAT SPGS PTSUNNY   40  37  87 CALM      29.78S
WALDEN         CLOUDY    34  32  93 CALM      29.84R
$$

COZ006>008-011-261600-
...WEST CENTRAL VALLEYS...

CITY           SKY/WX    TMP DP  RH WIND       PRES   REMARKS
GRAND JUNCTION RAIN      42  41  96 NE6       29.78R FOG
MONTROSE       CLOUDY    43  40  89 N10       29.79R
EAGLE          PTSUNNY   41  39  93 CALM      29.82S
RIFLE          CLOUDY    43  39  86 CALM      29.76R
DELTA          CLOUDY    46  42  85 MISG      29.78R
NUCLA          CLOUDY    41  37  87 E9        29.83R
$$

COZ017>023-064>068-261600-
...SOUTHWEST COLORADO...

CITY           SKY/WX    TMP DP  RH WIND       PRES   REMARKS
DURANGO        LGT RAIN  38  36  92 W3        29.78S FOG
CORTEZ         CLOUDY    40  38  93 CALM      29.79S
PAGOSA SPRINGS MIX PCPN  37  37 100 CALM      29.81S
TELLURIDE      LGT SNOW  33  33 100 W6        29.82S WCI  28
WOLF CREEK PAS NOT AVBL
$$

COZ009-010-012-014-032>034-037-058>063-261600-
...CENTRAL COLORADO...

CITY           SKY/WX    TMP DP  RH WIND       PRES   REMARKS
ASPEN          PTSUNNY   38  34  85 CALM      29.78S
BUENA VISTA    LGT RAIN  40  35  83 CALM      29.83S
COPPER MTN     CLOUDY    34  27  75 E6G16     29.90F WCI  29
BERTHOUD PASS  SNOW      23  14  68 MISG      29.94S VSB<1/4
COTTONWOOD PAS CLOUDY    36  32  87 E3        29.86F
GUNNISON       PTSUNNY   39  30  70 N7        29.80S
KREMMLING      CLOUDY    41  32  70 CALM      29.83F
LEADVILLE      LGT SNOW  30  29  96 MISG      29.85R VSB 1
MONARCH PASS   SNOW      27  25  93 MISG      29.99S VSB<1/4
SALIDA         CLOUDY    42  38  87 E7        29.90R
SUNLIGHT       CLOUDY    32  32 100 NE6       29.88S WCI  26
WILKERSON PASS SNOW      30  28  93 E5        29.93S VSB<1/4 WCI  25
$$

COZ069>075-261600-
...SAN LUIS VALLEY/SANGRE DE CRISTO MOUNTAINS...

CITY           SKY/WX    TMP DP  RH WIND       PRES   REMARKS
ALAMOSA        CLOUDY    45  30  55 SE12      29.79S
LA VETA PASS   CLOUDY    32  30  93 NE10G17   29.88S WCI  24
SAGUACHE       PTSUNNY   41  30  65 S5        29.82S
$$

COZ035-036-038>040-261600-
...NORTHERN COLORADO FRONT RANGE...

CITY           SKY/WX    TMP DP  RH WIND       PRES   REMARKS
DENVER INTL AP LGT RAIN  42  42 100 E21       29.85R
DMNS CITY PARK   N/A     43  41  92 S5        29.86R
AURORA         LGT RAIN  42  42 100 E12G20    29.86R
FRONT RANGE AP LGT RAIN  45  43  93 NE18      29.87R
ERIE MUNI ARPT DRIZZLE   44  41  88 CALM      29.86S
BOULDER MUN AP DRIZZLE   43  43 100 CALM      29.87R
CENTENNIAL     RAIN      41  41 100 E8        29.86R FOG
BROOMFIELD     CLOUDY    43  41  93 CALM      29.87R
FORT COLLINS   CLOUDY    43  41  93 SE5       29.89R
LONGMONT       DRIZZLE   46  43  91 CALM      29.89R
$$

COZ041-046-047-076>085-087-088-261600-
...PIKES PEAK/PALMER DIVIDE AND SOUTHERN FOOTHILLS...

CITY           SKY/WX    TMP DP  RH WIND       PRES   REMARKS
COLO. SPRINGS  FOG       44  43  96 E20       29.83R VSB 1
A. F. ACADEMY  MIX PCPN  39  38  94 NW13      29.83S FOG
ELLICOTT       LGT RAIN N/A N/A N/A E20       29.83R
FALCON         FOG       41  41 100 E17       29.86R VSB 1
FORT CARSON    LGT RAIN  45  44  99 E17       29.81R FOG
LIMON          CLOUDY    43  42  97 E15       29.86R
MONUMENT HILL  DRIZZLE   37  36  93 NE9       29.85S
TRINIDAD       CLOUDY    50  37  61 N10       29.78R
$$

COZ042>045-048>051-090-091-261600-
...NORTHEAST COLORADO...

CITY           SKY/WX    TMP DP  RH WIND       PRES   REMARKS
GREELEY ARPT   CLOUDY    43  37  81 SE12G18   29.88R
AKRON          CLOUDY    41  41 100 SE12      29.90R FOG
BURLINGTON     CLOUDY    43  41  93 E16       29.88S FOG
WRAY           CLOUDY   N/A N/A N/A E16       29.90S HAZE
STERLING       LGT RAIN  43  43 100 S9G17     29.91R
HOLYOKE        DRIZZLE   43  41  93 E13G23    29.92R
FORT MORGAN    LGT RAIN  41  40  95 E12       29.91R
$$

COZ086-089-092>099-261600-
...SOUTHEAST COLORADO...

CITY           SKY/WX    TMP DP  RH WIND       PRES   REMARKS
PUEBLO         CLOUDY    48  45  89 E22       29.79R
LA JUNTA       CLOUDY    47  45  93 E25       29.80R FOG
LAMAR          CLOUDY    47  45  93 E21       29.81R FOG
SPRINGFIELD      N/A     48  47  96 E17       29.79R
$$



USA.gov is the U.S. government's official web portal to all federal, state and local government web resources and services.